owner,sensor,date,latitude,longitude,vertical_datum,direction_of_sea_water_velocity,sea_water_speed,upward_sea_water_velocity,qcFlag 
TABS,ioos:station:wmo:42045:1,2017-01-01T00:00:00Z,26.2168,-96.4998,2.0,149.8667465,17.39006901,-99999.0,'11111222,11111222,99999999' 
TABS,ioos:station:wmo:42045:1,2017-01-01T00:30:00Z,26.2168,-96.4998,2.0,182.6932562,8.299168633,-99999.0,'11133222,11111222,99999999' 
TABS,ioos:station:wmo:42045:1,2017-01-01T01:00:00Z,26.2168,-96.4998,2.0,169.353551,21.16431194,-99999.0,'11111222,11111222,99999999' 
TABS,ioos:station:wmo:42045:1,2017-01-01T01:30:00Z,26.2168,-96.4998,2.0,166.7218334,23.64201768,-99999.0,'11111222,11111222,99999999' 
TABS,ioos:station:wmo:42045:1,2017-01-01T02:00:00Z,26.2168,-96.4998,2.0,169.1052741,19.20615787,-99999.0,'11111222,11111222,99999999' 
TABS,ioos:station:wmo:42045:1,2017-01-01T02:30:00Z,26.2168,-96.4998,2.0,171.8087163,18.59974731,-99999.0,'11111222,11111222,99999999' 
TABS,ioos:station:wmo:42045:1,2017-01-01T03:00:00Z,26.2168,-96.4998,2.0,180.0261082,21.7700023,-99999.0,'11111222,11111222,99999999' 
TABS,ioos:station:wmo:42045:1,2017-01-01T03:30:00Z,26.2168,-96.4998,2.0,180.2346064,19.52016393,-99999.0,'11111222,11111222,99999999' 
TABS,ioos:station:wmo:42045:1,2017-01-01T04:00:00Z,26.2168,-96.4998,2.0,183.5896196,18.5263515,-99999.0,'11111222,11111222,99999999' 
TABS,ioos:station:wmo:42045:1,2017-01-01T04:30:00Z,26.2168,-96.4998,2.0,188.9758123,17.43349649,-99999.0,'11111222,11111222,99999999' 
TABS,ioos:station:wmo:42045:1,2017-01-01T05:00:00Z,26.2168,-96.4998,2.0,195.4714188,14.61978454,-99999.0,'11111222,11111222,99999999' 
TABS,ioos:station:wmo:42045:1,2017-01-01T05:30:00Z,26.2168,-96.4998,2.0,199.4755775,17.75595675,-99999.0,'11111222,11111222,99999999' 
TABS,ioos:station:wmo:42045:1,2017-01-01T06:00:00Z,26.2168,-96.4998,2.0,194.1485451,13.5820212,-99999.0,'11111222,11111222,99999999' 
TABS,ioos:station:wmo:42045:1,2017-01-01T06:30:00Z,26.2168,-96.4998,2.0,200.9708345,11.14846178,-99999.0,'11111222,11111222,99999999' 
TABS,ioos:station:wmo:42045:1,2017-01-01T07:00:00Z,26.2168,-96.4998,2.0,191.7059067,17.29981792,-99999.0,'11111222,11111222,99999999' 
TABS,ioos:station:wmo:42045:1,2017-01-01T07:30:00Z,26.2168,-96.4998,2.0,196.6385563,18.16039647,-99999.0,'11111222,11111222,99999999' 
TABS,ioos:station:wmo:42045:1,2017-01-01T08:00:00Z,26.2168,-96.4998,2.0,200.6614201,19.04496784,-99999.0,'11111222,11111222,99999999' 
TABS,ioos:station:wmo:42045:1,2017-01-01T08:30:00Z,26.2168,-96.4998,2.0,200.9269938,17.1621036,-99999.0,'11111222,11111222,99999999' 
TABS,ioos:station:wmo:42045:1,2017-01-01T09:00:00Z,26.2168,-96.4998,2.0,204.2522037,15.84874127,-99999.0,'11111222,11111222,99999999' 
TABS,ioos:station:wmo:42045:1,2017-01-01T09:30:00Z,26.2168,-96.4998,2.0,209.8829766,17.46166086,-99999.0,'11111222,11111222,99999999' 
TABS,ioos:station:wmo:42045:1,2017-01-01T10:00:00Z,26.2168,-96.4998,2.0,213.3052495,16.11717717,-99999.0,'11111222,11111222,99999999' 
TABS,ioos:station:wmo:42045:1,2017-01-01T10:30:00Z,26.2168,-96.4998,2.0,205.2647258,21.48519956,-99999.0,'11111222,11111222,99999999' 
TABS,ioos:station:wmo:42045:1,2017-01-01T11:00:00Z,26.2168,-96.4998,2.0,204.304282,18.36793946,-99999.0,'11111222,11111222,99999999' 
TABS,ioos:station:wmo:42045:1,2017-01-01T11:30:00Z,26.2168,-96.4998,2.0,201.8550762,17.7561961,-99999.0,'11111222,11111222,99999999' 
TABS,ioos:station:wmo:42045:1,2017-01-01T12:00:00Z,26.2168,-96.4998,2.0,198.3919533,16.95613753,-99999.0,'11111222,11111222,99999999' 
TABS,ioos:station:wmo:42045:1,2017-01-01T12:30:00Z,26.2168,-96.4998,2.0,224.1858804,4.978533921,-99999.0,'11133222,11111222,99999999' 
TABS,ioos:station:wmo:42045:1,2017-01-01T13:00:00Z,26.2168,-96.4998,2.0,211.0770672,19.89558996,-99999.0,'11111222,11111222,99999999' 
TABS,ioos:station:wmo:42045:1,2017-01-01T13:30:00Z,26.2168,-96.4998,2.0,210.0671845,23.3523896,-99999.0,'11111222,11111222,99999999' 
TABS,ioos:station:wmo:42045:1,2017-01-01T14:00:00Z,26.2168,-96.4998,2.0,227.0437118,21.01444265,-99999.0,'11111222,11111222,99999999' 
TABS,ioos:station:wmo:42045:1,2017-01-01T14:30:00Z,26.2168,-96.4998,2.0,229.7490752,21.26500647,-99999.0,'11111222,11111222,99999999' 
TABS,ioos:station:wmo:42045:1,2017-01-01T15:00:00Z,26.2168,-96.4998,2.0,230.6655926,18.0486897,-99999.0,'11111222,11111222,99999999' 
TABS,ioos:station:wmo:42045:1,2017-01-01T15:30:00Z,26.2168,-96.4998,2.0,229.1744444,21.36889796,-99999.0,'11111222,11111222,99999999' 
TABS,ioos:station:wmo:42045:1,2017-01-01T16:00:00Z,26.2168,-96.4998,2.0,239.9979865,25.73870626,-99999.0,'11111222,11111222,99999999' 
TABS,ioos:station:wmo:42045:1,2017-01-01T16:30:00Z,26.2168,-96.4998,2.0,241.8397636,26.99532552,-99999.0,'11111222,11111222,99999999' 
TABS,ioos:station:wmo:42045:1,2017-01-01T17:00:00Z,26.2168,-96.4998,2.0,252.4425085,21.87920474,-99999.0,'11111222,11111222,99999999' 
TABS,ioos:station:wmo:42045:1,2017-01-01T17:30:00Z,26.2168,-96.4998,2.0,256.960953,21.45310234,-99999.0,'11111222,11111222,99999999' 
TABS,ioos:station:wmo:42045:1,2017-01-01T18:00:00Z,26.2168,-96.4998,2.0,263.6131931,17.80046348,-99999.0,'11111222,11111222,99999999' 
TABS,ioos:station:wmo:42045:1,2017-01-01T18:30:00Z,26.2168,-96.4998,2.0,269.9136357,20.0000225,-99999.0,'11111222,11111222,99999999' 
TABS,ioos:station:wmo:42045:1,2017-01-01T19:00:00Z,26.2168,-96.4998,2.0,276.4158987,15.12471487,-99999.0,'11111222,11111222,99999999' 
TABS,ioos:station:wmo:42045:1,2017-01-01T19:30:00Z,26.2168,-96.4998,2.0,288.2699857,18.62905526,-99999.0,'11111222,11111222,99999999' 
TABS,ioos:station:wmo:42045:1,2017-01-01T20:00:00Z,26.2168,-96.4998,2.0,288.7582975,14.02492424,-99999.0,'11111222,11111222,99999999' 
TABS,ioos:station:wmo:42045:1,2017-01-01T20:30:00Z,26.2168,-96.4998,2.0,304.1933823,14.21751385,-99999.0,'11111222,11111222,99999999' 
TABS,ioos:station:wmo:42045:1,2017-01-01T21:00:00Z,26.2168,-96.4998,2.0,306.8960956,13.29200135,-99999.0,'11111222,11111222,99999999' 
TABS,ioos:station:wmo:42045:1,2017-01-01T21:30:00Z,26.2168,-96.4998,2.0,309.2041099,13.6533256,-99999.0,'11111222,11111222,99999999' 
TABS,ioos:station:wmo:42045:1,2017-01-01T22:00:00Z,26.2168,-96.4998,2.0,314.7274813,11.87952861,-99999.0,'11111222,11111222,99999999' 
TABS,ioos:station:wmo:42045:1,2017-01-01T22:30:00Z,26.2168,-96.4998,2.0,325.4676994,12.26019984,-99999.0,'11111222,11111222,99999999' 
TABS,ioos:station:wmo:42045:1,2017-01-01T23:00:00Z,26.2168,-96.4998,2.0,328.9316767,10.30879721,-99999.0,'11111222,11111222,99999999' 
TABS,ioos:station:wmo:42045:1,2017-01-01T23:30:00Z,26.2168,-96.4998,2.0,335.6180115,8.453999054,-99999.0,'11133222,11111222,99999999' 
TABS,ioos:station:wmo:42045:1,2017-01-02T00:00:00Z,26.2168,-96.4998,2.0,352.4845341,5.275319896,-99999.0,'11133222,11111222,99999999' 
TABS,ioos:station:wmo:42045:1,2017-01-02T00:30:00Z,26.2168,-96.4998,2.0,325.8731925,3.636165563,-99999.0,'11133222,11111222,99999999' 
TABS,ioos:station:wmo:42045:1,2017-01-02T01:00:00Z,26.2168,-96.4998,2.0,349.55641,7.006068798,-99999.0,'11133222,11111222,99999999' 
TABS,ioos:station:wmo:42045:1,2017-01-02T01:30:00Z,26.2168,-96.4998,2.0,351.1759619,5.019412316,-99999.0,'11133222,11111222,99999999' 
TABS,ioos:station:wmo:42045:1,2017-01-02T02:00:00Z,26.2168,-96.4998,2.0,357.5790039,4.734226442,-99999.0,'11133222,11111222,99999999' 
TABS,ioos:station:wmo:42045:1,2017-01-02T02:30:00Z,26.2168,-96.4998,2.0,11.51401472,5.510898293,-99999.0,'11133222,11111222,99999999' 
TABS,ioos:station:wmo:42045:1,2017-01-02T03:00:00Z,26.2168,-96.4998,2.0,25.61449324,6.199233824,-99999.0,'11133222,11111222,99999999' 
TABS,ioos:station:wmo:42045:1,2017-01-02T03:30:00Z,26.2168,-96.4998,2.0,29.0113901,5.134218538,-99999.0,'11133222,11111222,99999999' 
TABS,ioos:station:wmo:42045:1,2017-01-02T04:00:00Z,26.2168,-96.4998,2.0,24.44410808,2.779100574,-99999.0,'11133222,11111222,99999999' 
TABS,ioos:station:wmo:42045:1,2017-01-02T04:30:00Z,26.2168,-96.4998,2.0,39.20732228,4.413671941,-99999.0,'11133222,11111222,99999999' 
TABS,ioos:station:wmo:42045:1,2017-01-02T05:00:00Z,26.2168,-96.4998,2.0,72.17568196,3.560926846,-99999.0,'11133222,11111222,99999999' 
TABS,ioos:station:wmo:42045:1,2017-01-02T05:30:00Z,26.2168,-96.4998,2.0,53.83545778,2.762209261,-99999.0,'11133222,11111222,99999999' 
TABS,ioos:station:wmo:42045:1,2017-01-02T06:00:00Z,26.2168,-96.4998,2.0,136.7898012,1.811077028,-99999.0,'11133222,11111222,99999999' 
TABS,ioos:station:wmo:42045:1,2017-01-02T06:30:00Z,26.2168,-96.4998,2.0,118.0202236,3.874119255,-99999.0,'11133222,11111222,99999999' 
TABS,ioos:station:wmo:42045:1,2017-01-02T07:00:00Z,26.2168,-96.4998,2.0,231.3398612,1.216593605,-99999.0,'11133222,11111222,99999999' 
TABS,ioos:station:wmo:42045:1,2017-01-02T07:30:00Z,26.2168,-96.4998,2.0,202.2078138,2.354676199,-99999.0,'11133222,11111222,99999999' 
TABS,ioos:station:wmo:42045:1,2017-01-02T08:00:00Z,26.2168,-96.4998,2.0,223.7346864,2.242074932,-99999.0,'11133222,11111222,99999999' 
TABS,ioos:station:wmo:42045:1,2017-01-02T08:30:00Z,26.2168,-96.4998,2.0,209.7833932,1.83199345,-99999.0,'11133222,11111222,99999999' 
TABS,ioos:station:wmo:42045:1,2017-01-02T09:00:00Z,26.2168,-96.4998,2.0,268.3198363,3.411465961,-99999.0,'11133222,11111222,99999999' 
TABS,ioos:station:wmo:42045:1,2017-01-02T09:30:00Z,26.2168,-96.4998,2.0,274.3362623,4.894006539,-99999.0,'11133222,11111222,99999999' 
TABS,ioos:station:wmo:42045:1,2017-01-02T10:00:00Z,26.2168,-96.4998,2.0,261.9580515,4.574986339,-99999.0,'11133222,11111222,99999999' 
TABS,ioos:station:wmo:42045:1,2017-01-02T10:30:00Z,26.2168,-96.4998,2.0,321.9412829,3.276705663,-99999.0,'11133222,11111222,99999999' 
TABS,ioos:station:wmo:42045:1,2017-01-02T11:00:00Z,26.2168,-96.4998,2.0,295.9652358,5.550225221,-99999.0,'11133222,11111222,99999999' 
TABS,ioos:station:wmo:42045:1,2017-01-02T11:30:00Z,26.2168,-96.4998,2.0,308.8645967,5.68944637,-99999.0,'11133222,11111222,99999999' 
TABS,ioos:station:wmo:42045:1,2017-01-02T12:00:00Z,26.2168,-96.4998,2.0,301.1424104,3.306508733,-99999.0,'11133222,11111222,99999999' 
TABS,ioos:station:wmo:42045:1,2017-01-02T12:30:00Z,26.2168,-96.4998,2.0,294.9960588,3.26588426,-99999.0,'11133222,11111222,99999999' 
TABS,ioos:station:wmo:42045:1,2017-01-02T13:00:00Z,26.2168,-96.4998,2.0,315.709823,4.568260063,-99999.0,'11133222,11111222,99999999' 
TABS,ioos:station:wmo:42045:1,2017-01-02T13:30:00Z,26.2168,-96.4998,2.0,335.2691844,3.633235473,-99999.0,'11133222,11111222,99999999' 
TABS,ioos:station:wmo:42045:1,2017-01-02T14:00:00Z,26.2168,-96.4998,2.0,335.7725218,4.167025318,-99999.0,'11133222,11111222,99999999' 
TABS,ioos:station:wmo:42045:1,2017-01-02T14:30:00Z,26.2168,-96.4998,2.0,344.9589162,9.402127419,-99999.0,'11133222,11111222,99999999' 
TABS,ioos:station:wmo:42045:1,2017-01-02T15:00:00Z,26.2168,-96.4998,2.0,335.8602273,6.553075614,-99999.0,'11133222,11111222,99999999' 
TABS,ioos:station:wmo:42045:1,2017-01-02T15:30:00Z,26.2168,-96.4998,2.0,318.3383762,8.379289946,-99999.0,'11133222,11111222,99999999' 
TABS,ioos:station:wmo:42045:1,2017-01-02T16:00:00Z,26.2168,-96.4998,2.0,342.7159951,8.818208435,-99999.0,'11133222,11111222,99999999' 
TABS,ioos:station:wmo:42045:1,2017-01-02T16:30:00Z,26.2168,-96.4998,2.0,348.1657023,5.997482805,-99999.0,'11133222,11111222,99999999' 
TABS,ioos:station:wmo:42045:1,2017-01-02T17:00:00Z,26.2168,-96.4998,2.0,352.0951509,7.561858237,-99999.0,'11133222,11111222,99999999' 
TABS,ioos:station:wmo:42045:1,2017-01-02T17:30:00Z,26.2168,-96.4998,2.0,358.3704811,11.95483584,-99999.0,'11111222,11111222,99999999' 
TABS,ioos:station:wmo:42045:1,2017-01-02T18:00:00Z,26.2168,-96.4998,2.0,14.94101402,7.834877153,-99999.0,'11133222,11111222,99999999' 
TABS,ioos:station:wmo:42045:1,2017-01-02T18:30:00Z,26.2168,-96.4998,2.0,21.52973486,8.610789743,-99999.0,'11133222,11111222,99999999' 
TABS,ioos:station:wmo:42045:1,2017-01-02T19:00:00Z,26.2168,-96.4998,2.0,48.50882344,6.354659708,-99999.0,'11133222,11111222,99999999' 
TABS,ioos:station:wmo:42045:1,2017-01-02T19:30:00Z,26.2168,-96.4998,2.0,48.91573655,8.490959899,-99999.0,'11133222,11111222,99999999' 
TABS,ioos:station:wmo:42045:1,2017-01-02T20:00:00Z,26.2168,-96.4998,2.0,45.60961038,5.317743883,-99999.0,'11133222,11111222,99999999' 
TABS,ioos:station:wmo:42045:1,2017-01-02T20:30:00Z,26.2168,-96.4998,2.0,75.05482319,5.351009251,-99999.0,'11133222,11111222,99999999' 
TABS,ioos:station:wmo:42045:1,2017-01-02T21:00:00Z,26.2168,-96.4998,2.0,76.45424594,6.233393939,-99999.0,'11133222,11111222,99999999' 
TABS,ioos:station:wmo:42045:1,2017-01-02T21:30:00Z,26.2168,-96.4998,2.0,125.7175176,6.663347507,-99999.0,'11133222,11111222,99999999' 
TABS,ioos:station:wmo:42045:1,2017-01-02T22:00:00Z,26.2168,-96.4998,2.0,104.0658361,4.690639615,-99999.0,'11133222,11111222,99999999' 
TABS,ioos:station:wmo:42045:1,2017-01-02T22:30:00Z,26.2168,-96.4998,2.0,150.4164563,4.841094917,-99999.0,'11133222,11111222,99999999' 
TABS,ioos:station:wmo:42045:1,2017-01-02T23:00:00Z,26.2168,-96.4998,2.0,134.4072023,4.101438772,-99999.0,'11133222,11111222,99999999' 
TABS,ioos:station:wmo:42045:1,2017-01-02T23:30:00Z,26.2168,-96.4998,2.0,155.7586932,5.845417008,-99999.0,'11133222,11111222,99999999' 
TABS,ioos:station:wmo:42045:1,2017-01-03T00:00:00Z,26.2168,-96.4998,2.0,131.2077476,4.91808906,-99999.0,'11133222,11111222,99999999' 
TABS,ioos:station:wmo:42045:1,2017-01-03T00:30:00Z,26.2168,-96.4998,2.0,203.1983258,0.68541958,-99999.0,'11133222,11111222,99999999' 
TABS,ioos:station:wmo:42045:1,2017-01-03T01:00:00Z,26.2168,-96.4998,2.0,192.316461,7.031848974,-99999.0,'11133222,11111222,99999999' 
TABS,ioos:station:wmo:42045:1,2017-01-03T01:30:00Z,26.2168,-96.4998,2.0,206.6545836,5.706452488,-99999.0,'11133222,11111222,99999999' 
TABS,ioos:station:wmo:42045:1,2017-01-03T02:00:00Z,26.2168,-96.4998,2.0,217.204404,7.872134399,-99999.0,'11133222,11111222,99999999' 
TABS,ioos:station:wmo:42045:1,2017-01-03T02:30:00Z,26.2168,-96.4998,2.0,226.6817624,9.15390627,-99999.0,'11133222,11111222,99999999' 
TABS,ioos:station:wmo:42045:1,2017-01-03T03:00:00Z,26.2168,-96.4998,2.0,230.3638295,9.076574244,-99999.0,'11133222,11111222,99999999' 
TABS,ioos:station:wmo:42045:1,2017-01-03T03:30:00Z,26.2168,-96.4998,2.0,230.8842788,9.034937742,-99999.0,'11133222,11111222,99999999' 
TABS,ioos:station:wmo:42045:1,2017-01-03T04:00:00Z,26.2168,-96.4998,2.0,228.2714423,9.044495564,-99999.0,'11133222,11111222,99999999' 
TABS,ioos:station:wmo:42045:1,2017-01-03T04:30:00Z,26.2168,-96.4998,2.0,237.0609656,9.305895981,-99999.0,'11133222,11111222,99999999' 
TABS,ioos:station:wmo:42045:1,2017-01-03T05:00:00Z,26.2168,-96.4998,2.0,236.8989891,7.818912968,-99999.0,'11133222,11111222,99999999' 
TABS,ioos:station:wmo:42045:1,2017-01-03T05:30:00Z,26.2168,-96.4998,2.0,234.1175257,8.701293007,-99999.0,'11133222,11111222,99999999' 
TABS,ioos:station:wmo:42045:1,2017-01-03T06:00:00Z,26.2168,-96.4998,2.0,251.9849273,7.760438132,-99999.0,'11133222,11111222,99999999' 
TABS,ioos:station:wmo:42045:1,2017-01-03T06:30:00Z,26.2168,-96.4998,2.0,256.9571333,10.767776,-99999.0,'11111222,11111222,99999999' 
TABS,ioos:station:wmo:42045:1,2017-01-03T07:00:00Z,26.2168,-96.4998,2.0,254.6713216,8.927580859,-99999.0,'11133222,11111222,99999999' 
TABS,ioos:station:wmo:42045:1,2017-01-03T07:30:00Z,26.2168,-96.4998,2.0,264.0132516,13.2321578,-99999.0,'11111222,11111222,99999999' 
TABS,ioos:station:wmo:42045:1,2017-01-03T08:00:00Z,26.2168,-96.4998,2.0,264.83197,13.54505445,-99999.0,'11111222,11111222,99999999' 
TABS,ioos:station:wmo:42045:1,2017-01-03T08:30:00Z,26.2168,-96.4998,2.0,267.8801925,12.43850875,-99999.0,'11111222,11111222,99999999' 
TABS,ioos:station:wmo:42045:1,2017-01-03T09:00:00Z,26.2168,-96.4998,2.0,272.7982011,13.7263615,-99999.0,'11111222,11111222,99999999' 
TABS,ioos:station:wmo:42045:1,2017-01-03T09:30:00Z,26.2168,-96.4998,2.0,283.8586953,13.27646414,-99999.0,'11111222,11111222,99999999' 
TABS,ioos:station:wmo:42045:1,2017-01-03T10:00:00Z,26.2168,-96.4998,2.0,281.793823,13.01473012,-99999.0,'11111222,11111222,99999999' 
TABS,ioos:station:wmo:42045:1,2017-01-03T10:30:00Z,26.2168,-96.4998,2.0,290.5268781,11.35065196,-99999.0,'11111222,11111222,99999999' 
TABS,ioos:station:wmo:42045:1,2017-01-03T11:00:00Z,26.2168,-96.4998,2.0,287.7928562,9.588628682,-99999.0,'11133222,11111222,99999999' 
TABS,ioos:station:wmo:42045:1,2017-01-03T11:30:00Z,26.2168,-96.4998,2.0,310.0123884,6.750148147,-99999.0,'11133222,11111222,99999999' 
TABS,ioos:station:wmo:42045:1,2017-01-03T12:00:00Z,26.2168,-96.4998,2.0,334.3492151,6.167860245,-99999.0,'11133222,11111222,99999999' 
TABS,ioos:station:wmo:42045:1,2017-01-03T12:30:00Z,26.2168,-96.4998,2.0,328.8807474,6.307741276,-99999.0,'11133222,11111222,99999999' 
TABS,ioos:station:wmo:42045:1,2017-01-03T13:00:00Z,26.2168,-96.4998,2.0,318.2066134,5.941927297,-99999.0,'11133222,11111222,99999999' 
TABS,ioos:station:wmo:42045:1,2017-01-03T13:30:00Z,26.2168,-96.4998,2.0,287.9207089,19.01238018,-99999.0,'11111222,11111222,99999999' 
TABS,ioos:station:wmo:42045:1,2017-01-03T14:00:00Z,26.2168,-96.4998,2.0,301.2624701,21.7360254,-99999.0,'11111222,11111222,99999999' 
TABS,ioos:station:wmo:42045:1,2017-01-03T14:30:00Z,26.2168,-96.4998,2.0,305.0621332,20.85438323,-99999.0,'11111222,11111222,99999999' 
TABS,ioos:station:wmo:42045:1,2017-01-03T15:00:00Z,26.2168,-96.4998,2.0,313.100819,25.17269155,-99999.0,'11111222,11111222,99999999' 
TABS,ioos:station:wmo:42045:1,2017-01-03T15:30:00Z,26.2168,-96.4998,2.0,315.7526226,24.23463843,-99999.0,'11111222,11111222,99999999' 
TABS,ioos:station:wmo:42045:1,2017-01-03T16:00:00Z,26.2168,-96.4998,2.0,324.4218243,24.49222121,-99999.0,'11111222,11111222,99999999' 
TABS,ioos:station:wmo:42045:1,2017-01-03T16:30:00Z,26.2168,-96.4998,2.0,334.1400532,20.3587033,-99999.0,'11111222,11111222,99999999' 
TABS,ioos:station:wmo:42045:1,2017-01-03T17:00:00Z,26.2168,-96.4998,2.0,335.6566125,19.38338722,-99999.0,'11111222,11111222,99999999' 
TABS,ioos:station:wmo:42045:1,2017-01-03T17:30:00Z,26.2168,-96.4998,2.0,334.9811775,15.74765062,-99999.0,'11111222,11111222,99999999' 
TABS,ioos:station:wmo:42045:1,2017-01-03T18:00:00Z,26.2168,-96.4998,2.0,328.772241,10.78223075,-99999.0,'11111222,11111222,99999999' 
TABS,ioos:station:wmo:42045:1,2017-01-03T18:30:00Z,26.2168,-96.4998,2.0,328.3066005,7.404194757,-99999.0,'11133222,11111222,99999999' 
TABS,ioos:station:wmo:42045:1,2017-01-03T19:00:00Z,26.2168,-96.4998,2.0,327.7880191,10.86186908,-99999.0,'11111222,11111222,99999999' 
TABS,ioos:station:wmo:42045:1,2017-01-03T19:30:00Z,26.2168,-96.4998,2.0,329.637045,9.654185621,-99999.0,'11133222,11111222,99999999' 
TABS,ioos:station:wmo:42045:1,2017-01-03T20:00:00Z,26.2168,-96.4998,2.0,313.0253863,9.028045193,-99999.0,'11133222,11111222,99999999' 
TABS,ioos:station:wmo:42045:1,2017-01-03T20:30:00Z,26.2168,-96.4998,2.0,294.5809398,5.5532513,-99999.0,'11133222,11111222,99999999' 
TABS,ioos:station:wmo:42045:1,2017-01-03T21:00:00Z,26.2168,-96.4998,2.0,281.193218,7.676001563,-99999.0,'11133222,11111222,99999999' 
TABS,ioos:station:wmo:42045:1,2017-01-03T21:30:00Z,26.2168,-96.4998,2.0,280.1792926,8.544483601,-99999.0,'11133222,11111222,99999999' 
TABS,ioos:station:wmo:42045:1,2017-01-03T22:00:00Z,26.2168,-96.4998,2.0,288.2338862,6.296133734,-99999.0,'11133222,11111222,99999999' 
TABS,ioos:station:wmo:42045:1,2017-01-03T22:30:00Z,26.2168,-96.4998,2.0,276.7994931,9.375937286,-99999.0,'11133222,11111222,99999999' 
TABS,ioos:station:wmo:42045:1,2017-01-03T23:00:00Z,26.2168,-96.4998,2.0,266.1816089,9.761664817,-99999.0,'11133222,11111222,99999999' 
TABS,ioos:station:wmo:42045:1,2017-01-03T23:30:00Z,26.2168,-96.4998,2.0,269.6071493,8.760205477,-99999.0,'11133222,11111222,99999999' 
TABS,ioos:station:wmo:42045:1,2017-01-04T00:00:00Z,26.2168,-96.4998,2.0,251.0587647,5.7302705,-99999.0,'11133222,11111222,99999999' 
TABS,ioos:station:wmo:42045:1,2017-01-04T00:30:00Z,26.2168,-96.4998,2.0,257.9773305,3.312657543,-99999.0,'11133222,11111222,99999999' 
TABS,ioos:station:wmo:42045:1,2017-01-04T01:00:00Z,26.2168,-96.4998,2.0,269.7964039,5.640035461,-99999.0,'11133222,11111222,99999999' 
TABS,ioos:station:wmo:42045:1,2017-01-04T01:30:00Z,26.2168,-96.4998,2.0,260.4308664,6.196208518,-99999.0,'11133222,11111222,99999999' 
TABS,ioos:station:wmo:42045:1,2017-01-04T02:00:00Z,26.2168,-96.4998,2.0,244.7393629,4.124378741,-99999.0,'11133222,11111222,99999999' 
TABS,ioos:station:wmo:42045:1,2017-01-04T02:30:00Z,26.2168,-96.4998,2.0,252.5072955,3.46,-99999.0,'11133222,11111222,99999999' 
TABS,ioos:station:wmo:42045:1,2017-01-04T03:00:00Z,26.2168,-96.4998,2.0,244.9827441,2.31741235,-99999.0,'11133222,11111222,99999999' 
TABS,ioos:station:wmo:42045:1,2017-01-04T03:30:00Z,26.2168,-96.4998,2.0,239.035895,2.973785466,-99999.0,'11133222,11111222,99999999' 
TABS,ioos:station:wmo:42045:1,2017-01-04T04:00:00Z,26.2168,-96.4998,2.0,230.9344308,4.855563819,-99999.0,'11133222,11111222,99999999' 
TABS,ioos:station:wmo:42045:1,2017-01-04T04:30:00Z,26.2168,-96.4998,2.0,232.9747054,2.956010825,-99999.0,'11133222,11111222,99999999' 
TABS,ioos:station:wmo:42045:1,2017-01-04T05:00:00Z,26.2168,-96.4998,2.0,219.7401293,5.631065619,-99999.0,'11133222,11111222,99999999' 
TABS,ioos:station:wmo:42045:1,2017-01-04T05:30:00Z,26.2168,-96.4998,2.0,212.0546873,6.123610046,-99999.0,'11133222,11111222,99999999' 
TABS,ioos:station:wmo:42045:1,2017-01-04T06:00:00Z,26.2168,-96.4998,2.0,199.1249708,10.4995238,-99999.0,'11111222,11111222,99999999' 
TABS,ioos:station:wmo:42045:1,2017-01-04T06:30:00Z,26.2168,-96.4998,2.0,206.4515835,13.5819034,-99999.0,'11111222,11111222,99999999' 
TABS,ioos:station:wmo:42045:1,2017-01-04T07:00:00Z,26.2168,-96.4998,2.0,210.5265384,17.54138535,-99999.0,'11111222,11111222,99999999' 
TABS,ioos:station:wmo:42045:1,2017-01-04T07:30:00Z,26.2168,-96.4998,2.0,213.2843691,16.85498739,-99999.0,'11111222,11111222,99999999' 
TABS,ioos:station:wmo:42045:1,2017-01-04T08:00:00Z,26.2168,-96.4998,2.0,213.8655078,20.79858168,-99999.0,'11111222,11111222,99999999' 
TABS,ioos:station:wmo:42045:1,2017-01-04T08:30:00Z,26.2168,-96.4998,2.0,219.5286411,17.50284548,-99999.0,'11111222,11111222,99999999' 
TABS,ioos:station:wmo:42045:1,2017-01-04T09:00:00Z,26.2168,-96.4998,2.0,207.8378056,16.10366418,-99999.0,'11111222,11111222,99999999' 
TABS,ioos:station:wmo:42045:1,2017-01-04T09:30:00Z,26.2168,-96.4998,2.0,212.4805511,13.66808326,-99999.0,'11111222,11111222,99999999' 
TABS,ioos:station:wmo:42045:1,2017-01-04T10:00:00Z,26.2168,-96.4998,2.0,236.7986876,29.56659771,-99999.0,'11111222,11111222,99999999' 
TABS,ioos:station:wmo:42045:1,2017-01-04T10:30:00Z,26.2168,-96.4998,2.0,242.3022467,30.55065466,-99999.0,'11111222,11111222,99999999' 
TABS,ioos:station:wmo:42045:1,2017-01-04T11:00:00Z,26.2168,-96.4998,2.0,242.0151939,31.77533163,-99999.0,'11111222,11111222,99999999' 
TABS,ioos:station:wmo:42045:1,2017-01-04T11:30:00Z,26.2168,-96.4998,2.0,231.9844536,30.81815699,-99999.0,'11111222,11111222,99999999' 
TABS,ioos:station:wmo:42045:1,2017-01-04T12:00:00Z,26.2168,-96.4998,2.0,230.3689806,32.71997708,-99999.0,'11111222,11111222,99999999' 
TABS,ioos:station:wmo:42045:1,2017-01-04T12:30:00Z,26.2168,-96.4998,2.0,228.9427761,33.41919359,-99999.0,'11111222,11111222,99999999' 
TABS,ioos:station:wmo:42045:1,2017-01-04T13:00:00Z,26.2168,-96.4998,2.0,222.8518302,36.97938074,-99999.0,'11111222,11111222,99999999' 
TABS,ioos:station:wmo:42045:1,2017-01-04T13:30:00Z,26.2168,-96.4998,2.0,224.8097053,36.25356396,-99999.0,'11111222,11111222,99999999' 
TABS,ioos:station:wmo:42045:1,2017-01-04T14:00:00Z,26.2168,-96.4998,2.0,227.287082,40.39384111,-99999.0,'11111222,11111222,99999999' 
TABS,ioos:station:wmo:42045:1,2017-01-04T14:30:00Z,26.2168,-96.4998,2.0,229.871776,41.87768499,-99999.0,'11111222,11111222,99999999' 
TABS,ioos:station:wmo:42045:1,2017-01-04T15:00:00Z,26.2168,-96.4998,2.0,234.4242173,44.08925152,-99999.0,'11111222,11111222,99999999' 
TABS,ioos:station:wmo:42045:1,2017-01-04T15:30:00Z,26.2168,-96.4998,2.0,233.1964972,41.21402795,-99999.0,'11111222,11111222,99999999' 
TABS,ioos:station:wmo:42045:1,2017-01-04T16:00:00Z,26.2168,-96.4998,2.0,233.8708062,47.31995773,-99999.0,'11111222,11111222,99999999' 